Location: Newark
(45.8667°N, 9.7333°E)
Time: 16:56:44
(UTC+00:00)

deb Explorer IX - Visible Passes

Search period start: 24 January 2020 00:00
Search period end: 03 February 2020 00:00
Orbit: 548 x 1101 km, 38.8° (Epoch: 23 January)

Date Brightness Start Highest point End Pass type
(mag) Time Alt. Az. Time Alt. Az. Time Alt. Az.
26 Jan ? 19:05:47 10° S 19:06:21 11° S 19:06:21 11° S visible
27 Jan ? 18:43:26 10° S 18:45:33 15° SSE 18:45:33 15° SSE visible
28 Jan ? 18:21:06 10° S 18:24:42 16° SE 18:24:42 16° SE visible
28 Jan ? 20:04:54 10° SW 20:06:05 15° SW 20:06:05 15° SW visible
29 Jan ? 17:58:49 10° S 18:02:23 16° SE 18:03:48 15° SE visible
29 Jan ? 19:42:33 10° SW 19:45:10 23° SSW 19:45:10 23° SSW visible
30 Jan ? 17:36:31 10° S 17:39:56 15° SE 17:42:50 12° ESE visible
30 Jan ? 19:20:13 10° SW 19:24:12 31° SSW 19:24:12 31° SSW visible
31 Jan ? 17:14:15 10° S 17:17:31 15° SE 17:20:59 10° ESE visible
31 Jan ? 18:57:54 10° SW 19:03:11 35° SSE 19:03:11 35° SSE visible
31 Jan ? 20:43:54 10° WSW 20:44:32 13° WSW 20:44:32 13° WSW visible
01 Feb ? 16:52:00 10° S 16:55:05 15° SE 16:58:22 10° ESE visible
01 Feb ? 18:35:35 10° SW 18:41:05 35° SSE 18:42:07 33° SE visible
01 Feb ? 20:21:33 10° WSW 20:23:28 20° WSW 20:23:28 20° WSW visible
02 Feb ? 18:13:17 10° SW 18:18:37 35° SSE 18:21:00 27° ESE visible
02 Feb ? 19:59:11 10° WSW 20:02:21 29° SW 20:02:21 29° SW visible
